GW2731 Weather Reports


Display with metric or nautical units.
time (UTC)temp
F
wind
direction
speed
MPH
gust
MPH
rain 1hr
in
rain 24hr
in
rain mn
in
humidity
%
barometer
mb
20260510120033 62 93 1.0 2.0 0.00 0.00 0.00 91 1017.2
20260510115530 62 92 1.0 2.0 0.00 0.00 0.00 92 1017.3
20260510115027 61 87 0.0 1.0 0.00 0.00 0.00 92 1017.1
20260510114522 62 82 1.0 2.0 0.00 0.00 0.00 93 1016.9
20260510114019 61 63 1.0 1.0 0.00 0.00 0.00 93 1016.7
20260510113514 61 40 2.0 3.0 0.00 0.00 0.00 94 1016.8
20260510113012 61 23 4.0 4.0 0.00 0.00 0.00 94 1016.7
20260510112509 61 113 2.0 2.0 0.00 0.00 0.00 93 1016.6
20260510112005 61 120 0.0 0.0 0.00 0.00 0.00 93 1016.5
20260510111501 61 120 0.0 0.0 0.00 0.00 0.00 92 1016.5
20260510110957 62 120 0.0 0.0 0.00 0.00 0.00 92 1016.2
20260510110454 62 120 0.0 1.0 0.00 0.00 0.00 92 1016.1
20260510105950 62 120 0.0 0.0 0.00 0.00 0.00 91 1016.1
20260510105445 62 120 0.0 0.0 0.00 0.00 0.00 91 1016.0
20260510104940 62 120 0.0 1.0 0.00 0.00 0.00 90 1016.0
20260510104437 62 120 0.0 0.0 0.00 0.00 0.00 90 1016.0
20260510103934 63 120 0.0 1.0 0.00 0.00 0.00 89 1016.1
20260510103431 63 120 0.0 0.0 0.00 0.00 0.00 89 1015.9
20260510102926 63 120 0.0 0.0 0.00 0.00 0.00 89 1015.9
20260510102422 63 119 0.0 0.0 0.00 0.00 0.00 89 1015.7
20260510101919 63 119 0.0 0.0 0.00 0.00 0.00 88 1015.6
20260510101418 63 119 0.0 0.0 0.00 0.00 0.00 89 1015.6
20260510100915 63 111 1.0 2.0 0.00 0.00 0.00 88 1015.6
20260510100412 64 125 0.0 0.0 0.00 0.00 0.00 87 1015.7
20260510095908 63 125 0.0 0.0 0.00 0.00 0.00 88 1015.7
20260510095403 63 124 1.0 1.0 0.00 0.00 0.00 88 1015.7
20260510094902 63 124 0.0 0.0 0.00 0.00 0.00 88 1015.6
20260510094357 63 125 0.0 0.0 0.00 0.00 0.00 88 1015.4
20260510093854 63 125 0.0 0.0 0.00 0.00 0.00 88 1015.7
20260510093350 64 125 0.0 0.0 0.00 0.00 0.00 86 1015.6
20260510092846 63 125 0.0 0.0 0.00 0.00 0.00 86 1015.6
20260510092343 64 124 1.0 1.0 0.00 0.00 0.00 85 1015.5
20260510091838 63 124 0.0 0.0 0.00 0.00 0.00 86 1015.2
20260510091335 64 124 0.0 0.0 0.00 0.00 0.00 84 1015.2
20260510090831 64 124 0.0 0.0 0.00 0.00 0.00 84 1015.2
20260510090323 64 100 0.0 1.0 0.00 0.00 0.00 83 1015.1
20260510085819 65 78 2.0 3.0 0.00 0.00 0.00 83 1014.9
20260510085318 65 102 1.0 2.0 0.00 0.00 0.00 82 1014.8
20260510084814 65 105 1.0 2.0 0.00 0.00 0.00 81 1014.6
20260510084312 66 85 3.0 3.0 0.00 0.00 0.00 81 1014.1
20260510083808 66 101 2.0 4.0 0.00 0.00 0.00 80 1014.3
20260510083305 66 32 3.0 8.0 0.00 0.00 0.00 78 1014.0
20260510082800 66 22 4.0 10.0 0.00 0.00 0.00 78 1013.8
20260510082258 66 33 1.0 6.0 0.00 0.00 0.00 78 1013.9
20260510081756 67 4 4.0 8.0 0.00 0.00 0.00 77 1013.6
20260510081253 68 3 8.0 14.0 0.00 0.00 0.00 75 1013.6
20260510080748 68 20 3.0 7.0 0.00 0.00 0.00 74 1012.9
20260510080244 68 95 1.0 4.0 0.00 0.00 0.00 72 1012.6
20260510075741 68 178 0.0 3.0 0.00 0.00 0.00 72 1012.2
20260510075239 67 203 6.0 14.0 0.00 0.00 0.00 74 1010.5
20260510074735 67 152 8.0 15.0 0.00 0.00 0.00 75 1010.3
20260510074232 67 161 2.0 8.0 0.00 0.00 0.00 76 1012.3
20260510073728 68 172 4.0 8.0 0.00 0.00 0.00 75 1013.3
20260510073224 68 158 4.0 11.0 0.00 0.00 0.00 74 1013.6
20260510072720 68 191 4.0 8.0 0.00 0.00 0.00 73 1013.8
20260510072217 69 197 5.0 7.0 0.00 0.00 0.00 72 1014.1
20260510071714 69 194 5.0 7.0 0.00 0.00 0.00 73 1014.4
20260510071210 68 193 5.0 9.0 0.00 0.00 0.00 75 1013.6
20260510070708 68 137 7.0 10.0 0.00 0.00 0.00 76 1014.2
20260510070205 68 202 5.0 9.0 0.00 0.00 0.00 76 1015.1
20260510065700 67 188 5.0 7.0 0.00 0.00 0.00 78 1016.2
20260510065157 67 197 4.0 7.0 0.00 0.00 0.00 78 1016.6
20260510064653 66 185 0.0 3.0 0.00 0.00 0.00 81 1016.1
20260510064150 66 178 0.0 1.0 0.00 0.00 0.00 83 1015.9
20260510063648 66 168 0.0 0.0 0.00 0.00 0.00 81 1015.5
20260510063144 66 169 0.0 0.0 0.00 0.00 0.00 81 1015.6
20260510062640 66 170 0.0 1.0 0.00 0.00 0.00 81 1015.5
20260510062136 66 161 2.0 2.0 0.00 0.00 0.00 80 1015.5
20260510061632 67 141 0.0 0.0 0.00 0.00 0.00 79 1015.6
20260510061129 67 145 1.0 1.0 0.00 0.00 0.00 78 1015.9
20260510060625 67 163 0.0 1.0 0.00 0.00 0.00 78 1016.0
20260510060122 68 171 2.0 3.0 0.00 0.00 0.00 76 1016.3
20260510055618 68 107 1.0 2.0 0.00 0.00 0.00 75 1016.4
20260510055117 68 135 0.0 0.0 0.00 0.00 0.00 76 1016.4
20260510054611 68 127 0.0 1.0 0.00 0.00 0.00 76 1016.5
20260510054106 68 99 1.0 2.0 0.00 0.00 0.00 77 1016.3
20260510053601 68 77 1.0 2.0 0.00 0.00 0.00 76 1016.4
20260510053058 68 24 2.0 3.0 0.00 0.00 0.00 75 1016.3
20260510052554 68 20 2.0 3.0 0.00 0.00 0.00 75 1016.6
20260510052050 68 12 3.0 4.0 0.00 0.00 0.00 74 1016.5
20260510051546 69 18 3.0 6.0 0.00 0.00 0.00 73 1016.3
20260510051043 67 235 2.0 2.0 0.00 0.00 0.00 78 1016.0
20260510050540 67 213 2.0 3.0 0.00 0.00 0.00 81 1015.9
20260510050037 68 150 0.0 0.0 0.00 0.00 0.00 83 1015.3
20260510045534 68 147 0.0 0.0 0.00 0.00 0.00 82 1015.3
20260510045030 67 147 0.0 0.0 0.00 0.00 0.00 82 1015.0
20260510044527 67 148 0.0 0.0 0.00 0.00 0.00 82 1015.1
20260510044025 67 149 0.0 0.0 0.00 0.00 0.00 82 1015.0
20260510043520 67 154 0.0 0.0 0.00 0.00 0.00 82 1014.8
20260510043015 67 154 0.0 0.0 0.00 0.00 0.00 82 1014.8
20260510042510 67 157 0.0 0.0 0.00 0.00 0.00 82 1014.8
20260510042005 67 157 0.0 0.0 0.00 0.00 0.00 80 1014.7
20260510041502 67 157 0.0 0.0 0.00 0.00 0.00 80 1014.5
20260510041000 67 157 0.0 0.0 0.00 0.00 0.00 81 1014.6
20260510040456 67 157 0.0 0.0 0.00 0.00 0.00 81 1014.4
20260510035952 67 156 0.0 0.0 0.00 0.00 0.00 77 1014.3
20260510035449 67 156 0.0 0.0 0.00 0.00 0.00 78 1014.4
20260510034948 67 156 0.0 0.0 0.00 0.00 0.00 78 1014.4
20260510034447 67 156 0.0 0.0 0.00 0.00 0.00 80 1014.2
20260510033943 67 156 0.0 0.0 0.00 0.00 0.00 79 1014.3
20260510033439 67 156 0.0 0.0 0.00 0.00 0.00 79 1014.4
20260510032937 67 156 0.0 0.0 0.00 0.00 0.00 79 1014.4
20260510032433 67 156 0.0 0.0 0.00 0.00 0.00 78 1014.5
20260510031928 67 156 0.0 0.0 0.00 0.00 0.00 78 1014.3
20260510031424 67 156 0.0 0.0 0.00 0.00 0.00 77 1014.4
20260510030919 67 156 0.0 0.0 0.00 0.00 0.00 77 1014.5
20260510030415 67 156 0.0 0.0 0.00 0.00 0.00 77 1014.3
20260510025913 67 157 0.0 0.0 0.00 0.00 0.00 75 1014.2
20260510025410 67 156 0.0 0.0 0.00 0.00 0.00 76 1014.1
20260510024908 67 156 0.0 0.0 0.00 0.00 0.00 77 1014.1
20260510024404 68 153 1.0 1.0 0.00 0.00 0.00 74 1013.7
20260510023900 68 143 0.0 0.0 0.00 0.00 0.00 77 1013.5
20260510023356 69 143 0.0 0.0 0.00 0.00 0.00 77 1013.3
20260510022854 69 142 0.0 0.0 0.00 0.00 0.00 74 1013.2
20260510022353 69 142 0.0 0.0 0.00 0.00 0.00 72 1012.9
20260510021852 69 142 0.0 0.0 0.00 0.00 0.00 74 1012.8
20260510021350 69 142 0.0 0.0 0.00 0.00 0.00 74 1012.7
20260510020846 69 142 0.0 1.0 0.00 0.00 0.00 73 1012.5
20260510020346 69 146 0.0 1.0 0.00 0.00 0.00 70 1012.5
20260510015842 70 147 0.0 0.0 0.00 0.00 0.00 69 1012.2
20260510015338 70 147 0.0 0.0 0.00 0.00 0.00 67 1012.4
20260510014833 71 147 0.0 0.0 0.00 0.00 0.00 66 1012.1
20260510014331 71 147 0.0 0.0 0.00 0.00 0.00 65 1012.1
20260510013827 72 147 0.0 0.0 0.00 0.00 0.00 65 1012.2
20260510013323 73 147 0.0 0.0 0.00 0.00 0.00 62 1012.0
20260510012818 73 148 0.0 0.0 0.00 0.00 0.00 59 1011.8
20260510012317 75 148 0.0 0.0 0.00 0.00 0.00 56 1012.0
20260510011813 75 148 0.0 0.0 0.00 0.00 0.00 53 1011.8
20260510011308 76 148 0.0 0.0 0.00 0.00 0.00 52 1011.9
20260510010805 76 153 1.0 2.0 0.00 0.00 0.00 51 1011.9
20260510010303 77 153 0.0 1.0 0.00 0.00 0.00 50 1011.7
20260510005759 77 154 1.0 2.0 0.00 0.00 0.00 50 1011.7
20260510005255 77 155 1.0 2.0 0.00 0.00 0.00 51 1011.7
20260510004753 78 145 1.0 1.0 0.00 0.00 0.00 50 1011.6
20260510004250 78 142 0.0 2.0 0.00 0.00 0.00 48 1011.6
20260510003748 78 138 0.0 2.0 0.00 0.00 0.00 48 1011.4
20260510003244 79 138 1.0 3.0 0.00 0.00 0.00 46 1011.4
20260510002743 79 136 0.0 3.0 0.00 0.00 0.00 46 1011.6
20260510002241 80 138 0.0 1.0 0.00 0.00 0.00 46 1011.3
20260510001737 80 137 0.0 1.0 0.00 0.00 0.00 45 1011.5
20260510001236 80 123 3.0 4.0 0.00 0.00 0.00 44 1011.6
20260510000731 80 86 3.0 6.0 0.00 0.00 0.00 44 1011.5
20260510000229 80 124 3.0 4.0 0.00 0.00 0.00 43 1011.4
20260509235725 80 150 0.0 4.0 0.00 0.00 0.00 46 1011.3
20260509235222 80 141 1.0 4.0 0.00 0.00 0.00 44 1011.5
20260509234718 81 150 1.0 4.0 0.00 0.00 0.00 45 1011.5
20260509234215 81 158 1.0 6.0 0.00 0.00 0.00 47 1011.5
20260509233713 81 138 2.0 4.0 0.00 0.00 0.00 45 1011.6
20260509233205 81 135 2.0 6.0 0.00 0.00 0.00 46 1011.7
20260509232701 81 158 2.0 4.0 0.00 0.00 0.00 45 1011.5
20260509232158 81 137 4.0 6.0 0.00 0.00 0.00 44 1011.6
20260509231655 81 126 1.0 4.0 0.00 0.00 0.00 44 1011.8
20260509231152 81 146 3.0 6.0 0.00 0.00 0.00 43 1012.0
20260509230649 81 115 3.0 4.0 0.00 0.00 0.00 41 1011.9
20260509230146 82 164 4.0 10.0 0.00 0.00 0.00 41 1011.8
20260509225641 81 154 2.0 3.0 0.00 0.00 0.00 40 1011.7
20260509225137 82 103 4.0 7.0 0.00 0.00 0.00 38 1011.8
20260509224633 81 172 1.0 3.0 0.00 0.00 0.00 41 1012.0
20260509224130 82 132 2.0 6.0 0.00 0.00 0.00 38 1012.0
20260509223627 82 126 4.0 4.0 0.00 0.00 0.00 38 1012.0
20260509223124 82 128 2.0 3.0 0.00 0.00 0.00 36 1012.1
20260509222621 82 132 1.0 6.0 0.00 0.00 0.00 36 1012.1
20260509222116 81 164 4.0 4.0 0.00 0.00 0.00 36 1012.1
20260509221612 82 123 3.0 4.0 0.00 0.00 0.00 36 1012.1
20260509221109 82 128 6.0 8.0 0.00 0.00 0.00 34 1012.1
20260509220604 81 143 3.0 4.0 0.00 0.00 0.00 35 1012.1
20260509215556 82 155 0.0 6.0 0.00 0.00 0.00 36 1012.2
20260509215054 82 135 1.0 4.0 0.00 0.00 0.00 33 1012.3
20260509214551 82 134 2.0 4.0 0.00 0.00 0.00 35 1012.3
20260509214048 82 72 3.0 6.0 0.00 0.00 0.00 35 1012.2
20260509213544 82 140 3.0 3.0 0.00 0.00 0.00 36 1012.2
20260509213041 82 81 4.0 6.0 0.00 0.00 0.00 39 1012.1
20260509212538 81 102 1.0 2.0 0.00 0.00 0.00 36 1012.3
20260509212035 81 135 1.0 6.0 0.00 0.00 0.00 38 1012.5
20260509211530 82 123 5.0 7.0 0.00 0.00 0.00 38 1012.6
20260509211027 82 151 2.0 7.0 0.00 0.00 0.00 39 1012.6
20260509210524 82 121 5.0 7.0 0.00 0.00 0.00 38 1012.5
20260509210020 82 176 2.0 3.0 0.00 0.00 0.00 39 1012.7
20260509205515 83 38 3.0 6.0 0.00 0.00 0.00 33 1012.8
20260509205010 82 127 1.0 4.0 0.00 0.00 0.00 40 1012.8
20260509204507 82 154 0.0 1.0 0.00 0.00 0.00 43 1012.7
20260509204003 82 90 4.0 6.0 0.00 0.00 0.00 38 1012.8
20260509203459 82 145 1.0 4.0 0.00 0.00 0.00 41 1012.7
20260509202957 82 127 1.0 2.0 0.00 0.00 0.00 37 1013.0
20260509202453 82 25 2.0 4.0 0.00 0.00 0.00 35 1013.0
20260509201948 82 67 3.0 4.0 0.00 0.00 0.00 38 1013.1
20260509201443 81 118 1.0 6.0 0.00 0.00 0.00 36 1013.1
20260509200940 81 166 2.0 4.0 0.00 0.00 0.00 41 1013.0
20260509200440 82 85 3.0 6.0 0.00 0.00 0.00 42 1013.2
20260509195937 81 135 2.0 6.0 0.00 0.00 0.00 44 1013.2
20260509195433 81 173 2.0 4.0 0.00 0.00 0.00 45 1013.4
20260509194932 82 154 1.0 4.0 0.00 0.00 0.00 45 1013.4
20260509194428 81 198 2.0 3.0 0.00 0.00 0.00 37 1013.4
20260509193926 81 159 2.0 6.0 0.00 0.00 0.00 45 1013.6
20260509193425 81 138 1.0 6.0 0.00 0.00 0.00 40 1013.6
20260509192921 81 141 2.0 7.0 0.00 0.00 0.00 47 1013.4
20260509192418 80 174 3.0 3.0 0.00 0.00 0.00 42 1013.6
20260509191913 81 197 3.0 6.0 0.00 0.00 0.00 43 1013.4
20260509191409 81 143 3.0 4.0 0.00 0.00 0.00 38 1013.6
20260509190905 81 126 2.0 6.0 0.00 0.00 0.00 37 1013.5
20260509190402 80 132 0.0 2.0 0.00 0.00 0.00 43 1013.6
20260509185900 81 191 1.0 4.0 0.00 0.00 0.00 49 1013.4
20260509185356 80 123 4.0 4.0 0.00 0.00 0.00 41 1013.6
20260509184853 79 192 1.0 3.0 0.00 0.00 0.00 43 1013.6
20260509184350 79 170 1.0 3.0 0.00 0.00 0.00 43 1013.5
20260509183847 78 217 3.0 3.0 0.00 0.00 0.00 44 1013.7
20260509183342 79 125 2.0 6.0 0.00 0.00 0.00 44 1013.6
20260509182838 80 191 2.0 3.0 0.00 0.00 0.00 41 1013.8
20260509182335 79 152 2.0 7.0 0.00 0.00 0.00 42 1013.8
20260509181833 79 155 5.0 7.0 0.00 0.00 0.00 42 1013.9
20260509181330 78 156 0.0 3.0 0.00 0.00 0.00 55 1014.0
20260509180827 78 172 2.0 3.0 0.00 0.00 0.00 50 1014.0
20260509180323 77 190 0.0 1.0 0.00 0.00 0.00 53 1014.0
20260509175820 77 187 2.0 3.0 0.00 0.00 0.00 53 1014.1
20260509175316 77 186 2.0 3.0 0.00 0.00 0.00 59 1014.2
20260509174812 76 163 2.0 3.0 0.00 0.00 0.00 60 1014.2
20260509174308 77 138 4.0 4.0 0.00 0.00 0.00 52 1014.1
20260509173804 75 136 2.0 2.0 0.00 0.00 0.00 63 1014.0
20260509173300 76 166 4.0 7.0 0.00 0.00 0.00 66 1014.4
20260509172756 77 169 4.0 4.0 0.00 0.00 0.00 65 1014.4
20260509172253 76 194 2.0 3.0 0.00 0.00 0.00 68 1014.5
20260509171748 75 216 2.0 3.0 0.00 0.00 0.00 73 1014.6
20260509171245 75 204 3.0 4.0 0.00 0.00 0.00 71 1014.5
20260509170741 76 158 3.0 4.0 0.00 0.00 0.00 69 1014.7
20260509170237 73 118 1.0 2.0 0.00 0.00 0.00 69 1014.6
20260509165736 74 198 2.0 4.0 0.00 0.00 0.00 72 1014.8
20260509165231 74 149 0.0 3.0 0.00 0.00 0.00 75 1014.6
20260509164728 74 175 2.0 6.0 0.00 0.00 0.00 77 1014.7
20260509164223 73 171 1.0 3.0 0.00 0.00 0.00 79 1014.9
20260509163721 73 178 1.0 3.0 0.00 0.00 0.00 75 1014.7
20260509163217 73 168 1.0 3.0 0.00 0.00 0.00 80 1014.6
20260509162715 73 217 3.0 6.0 0.00 0.00 0.00 77 1014.5
20260509162210 73 194 1.0 3.0 0.00 0.00 0.00 79 1014.6
20260509161706 71 156 0.0 2.0 0.00 0.00 0.00 80 1014.6
20260509161202 71 164 1.0 1.0 0.00 0.00 0.00 82 1014.7
20260509160657 71 132 1.0 3.0 0.00 0.00 0.00 81 1014.7
20260509160154 70 187 0.0 1.0 0.00 0.00 0.00 82 1014.7
20260509155649 70 180 1.0 3.0 0.00 0.00 0.00 83 1014.6
20260509155146 69 135 0.0 2.0 0.00 0.00 0.00 85 1014.5
20260509154642 69 172 1.0 3.0 0.00 0.00 0.00 87 1014.5
20260509154139 69 156 1.0 6.0 0.00 0.00 0.00 88 1014.5
20260509153636 68 199 2.0 4.0 0.00 0.00 0.00 86 1014.5
20260509153133 68 165 0.0 1.0 0.00 0.00 0.00 88 1014.5
20260509152628 68 164 0.0 1.0 0.00 0.00 0.00 87 1014.6
20260509152126 67 170 0.0 1.0 0.00 0.00 0.00 90 1014.7
20260509151622 66 144 0.0 1.0 0.00 0.00 0.00 90 1014.8
20260509151120 65 165 0.0 2.0 0.00 0.00 0.00 92 1014.6
20260509150618 64 160 0.0 2.0 0.00 0.00 0.00 93 1014.7
20260509150116 64 186 1.0 2.0 0.00 0.00 0.00 93 1014.7
20260509145611 62 172 0.0 2.0 0.00 0.00 0.00 97 1014.6
20260509145107 60 145 0.0 1.0 0.00 0.00 0.00 99 1014.6
20260509144604 60 147 0.0 2.0 0.00 0.00 0.00 99 1014.7
20260509144101 60 174 1.0 2.0 0.00 0.00 0.00 99 1014.6
20260509143558 60 159 1.0 2.0 0.00 0.00 0.00 99 1014.7
20260509143055 61 160 1.0 2.0 0.00 0.00 0.00 99 1014.7
20260509142550 59 148 3.0 6.0 0.00 0.00 0.00 99 1014.6
20260509142047 60 154 4.0 6.0 0.00 0.00 0.00 99 1014.6
20260509141543 60 169 2.0 3.0 0.00 0.00 0.00 99 1014.7
20260509141040 60 173 0.0 3.0 0.00 0.00 0.00 99 1014.6
20260509140537 58 142 1.0 2.0 0.00 0.00 0.00 99 1014.5
20260509140035 59 157 0.0 1.0 0.00 0.00 0.00 99 1014.4
20260509135531 59 162 1.0 2.0 0.00 0.00 0.00 99 1014.4
20260509135030 59 148 0.0 1.0 0.00 0.00 0.00 99 1014.3
20260509134526 57 141 0.0 1.0 0.00 0.00 0.00 99 1014.2
20260509134024 57 140 2.0 3.0 0.00 0.00 0.00 99 1014.1
20260509133520 58 146 0.0 2.0 0.00 0.00 0.00 99 1014.0
20260509133018 57 150 0.0 1.0 0.00 0.00 0.00 99 1014.0
20260509132516 57 150 0.0 0.0 0.00 0.00 0.00 99 1014.0
20260509132014 57 149 0.0 0.0 0.00 0.00 0.00 99 1013.8
20260509131510 57 148 0.0 1.0 0.00 0.00 0.00 99 1013.7
20260509131007 56 147 0.0 0.0 0.00 0.00 0.00 99 1013.7
20260509130502 55 147 0.0 0.0 0.00 0.00 0.00 99 1013.6
20260509125959 55 147 0.0 1.0 0.00 0.00 0.00 99 1013.9
20260509125456 55 145 0.0 0.0 0.00 0.00 0.00 99 1013.7
20260509124951 55 145 0.0 0.0 0.00 0.00 0.00 99 1013.6
20260509124449 54 145 0.0 1.0 0.00 0.00 0.00 99 1013.5
20260509123946 54 146 1.0 1.0 0.00 0.00 0.00 99 1013.8
20260509123444 54 146 0.0 0.0 0.00 0.00 0.00 99 1013.7
20260509122939 54 146 0.0 0.0 0.00 0.00 0.00 99 1013.5
20260509122437 54 146 0.0 0.0 0.00 0.00 0.00 99 1013.6
20260509121933 54 146 0.0 0.0 0.00 0.00 0.00 99 1013.7
20260509121430 54 146 0.0 0.0 0.00 0.00 0.00 99 1013.5
20260509120928 53 147 0.0 0.0 0.00 0.00 0.00 99 1013.5
20260509120426 53 146 0.0 0.0 0.00 0.00 0.00 99 1013.6